Regional Weather Roundup
Issued by NWS

Home | Current Version | Previous Version | Graphics & Text | Print | Product List | Glossary On
Versions: 1 2 3 4 5 6 7 8 9 10 11 12 13 14 15 16 17 18 19 20 21 22 23 24 25 26 27 28 29 30 31 32 33 34 35 36 37 38 39 40 41 42 43 44 45 46 47 48 49 50
000
ASUS43 KLSX 060957
RWRMO

WEATHER SUMMARY FOR MISSOURI
NATIONAL WEATHER SERVICE SPRINGFIELD MO
500 AM CDT FRI MAY 06 2016

NOTE: "FAIR" INDICATES FEW OR NO CLOUDS BELOW 12,000 FEET WITH NO
       SIGNIFICANT WEATHER AND/OR OBSTRUCTIONS TO VISIBILITY.
       CURRENT SKY AND/OR WEATHER CONDITIONS ARE NOT AVAILABLE FOR
       CHILLICOTHE AND FARMINGTON.

MOZ001>031-035>038-043-044-053-054-061100-
...NORTHERN AND WESTERN MISSOURI...

CITY           SKY/WX    TMP DP  RH WIND       PRES   REMARKS
KANSAS CTY INT CLEAR     48  40  73 S8        30.05S
LEE`S SUMMIT   CLEAR     54  37  52 S6        30.06S
ST JOSEPH      PTCLDY    50  46  86 SE3       30.04S
CHILLICOTHE      N/A     46  43  89 CALM      30.06R

$$
MOZ066>068-077>081-088>096-101>105-061100-
...SOUTHWEST MISSOURI...

CITY           SKY/WX    TMP DP  RH WIND       PRES   REMARKS
SPRINGFIELD    CLEAR     43  36  76 S3        30.08R
JOPLIN         CLEAR     49  40  71 SE5       30.07F

$$
MOZ032>034-039>042-045>050-055>058-069>072-061100-
...CENTRAL MISSOURI...

CITY           SKY/WX    TMP DP  RH WIND       PRES   REMARKS
COLUMBIA       NOT AVBL
JEFFERSON CITY CLEAR     43  40  89 CALM      30.07R
ROLLA          CLEAR     43  38  82 SW6       30.05R
SEDALIA        CLEAR     51  37  58 SW9       30.07S
WARRENSBURG    CLEAR     43  41  93 CALM      30.07R

$$
MOZ051-052-059>065-061100-
...EAST CENTRAL MISSOURI...

CITY           SKY/WX    TMP DP  RH WIND       PRES   REMARKS
ST LOUIS INTL  CLEAR     49  42  77 CALM      30.05R

$$
MOZ072>076-082>087-097>100-106>115-061100-
...SOUTH CENTRAL AND SOUTHEAST MISSOURI...

CITY           SKY/WX    TMP DP  RH WIND       PRES   REMARKS
CAPE GIRARDEAU CLEAR     43  42  97 W3        30.05R
POPLAR BLUFF   CLEAR     48  43  82 CALM      30.05S
WEST PLAINS    CLEAR     43  36  76 CALM      30.09R

$$



USA.gov is the U.S. government's official web portal to all federal, state and local government web resources and services.